TimeEST,TemperatureF,Dew PointF,Humidity,Sea Level PressureIn,VisibilityMPH,Wind Direction,Wind SpeedMPH,Gust SpeedMPH,PrecipitationIn,Events,Conditions,WindDirDegrees,DateUTC
12:54 AM,33.1,18.0,54,29.96,-9999.0,North,-9999.0,-,N/A,,Unknown,0,2012-11-08 05:54:00
1:54 AM,33.1,18.0,54,29.94,-9999.0,North,-9999.0,-,N/A,,Unknown,0,2012-11-08 06:54:00
2:54 AM,33.1,18.0,54,29.93,-9999.0,North,-9999.0,-,N/A,,Unknown,0,2012-11-08 07:54:00
3:54 AM,33.1,19.0,56,29.92,-9999.0,North,-9999.0,-,N/A,,Unknown,0,2012-11-08 08:54:00
4:54 AM,33.1,19.0,56,29.92,-9999.0,North,-9999.0,-,N/A,,Unknown,0,2012-11-08 09:54:00
5:54 AM,32.0,21.0,64,29.92,-9999.0,North,-9999.0,-,N/A,,Unknown,0,2012-11-08 10:54:00
6:54 AM,30.9,21.0,67,29.92,-9999.0,North,-9999.0,-,N/A,,Unknown,0,2012-11-08 11:54:00
7:54 AM,30.9,21.9,69,29.93,-9999.0,North,-9999.0,-,N/A,,Unknown,0,2012-11-08 12:54:00
8:54 AM,32.0,23.0,69,29.92,-9999.0,North,-9999.0,-,N/A,,Unknown,0,2012-11-08 13:54:00
9:54 AM,34.0,24.1,67,29.92,-9999.0,North,-9999.0,-,N/A,,Unknown,0,2012-11-08 14:54:00
10:54 AM,35.1,25.0,67,29.90,-9999.0,North,-9999.0,-,N/A,,Unknown,0,2012-11-08 15:54:00
11:54 AM,35.1,26.1,70,29.88,-9999.0,North,-9999.0,-,N/A,,Unknown,0,2012-11-08 16:54:00
12:54 PM,36.0,26.1,67,29.87,-9999.0,North,-9999.0,-,N/A,,Unknown,0,2012-11-08 17:54:00
1:54 PM,36.0,27.0,70,29.86,-9999.0,North,-9999.0,-,N/A,,Unknown,0,2012-11-08 18:54:00
2:54 PM,36.0,27.0,70,29.87,-9999.0,North,-9999.0,-,N/A,,Unknown,0,2012-11-08 19:54:00
3:54 PM,36.0,27.0,70,29.88,-9999.0,North,-9999.0,-,N/A,,Unknown,0,2012-11-08 20:54:00
4:54 PM,35.1,28.0,76,29.90,-9999.0,North,-9999.0,-,N/A,,Unknown,0,2012-11-08 21:54:00
5:54 PM,35.1,28.9,78,29.90,-9999.0,North,-9999.0,-,N/A,,Unknown,0,2012-11-08 22:54:00
6:54 PM,35.1,28.9,78,29.91,-9999.0,North,-9999.0,-,N/A,,Unknown,0,2012-11-08 23:54:00
7:54 PM,34.0,30.9,89,29.92,-9999.0,North,-9999.0,-,0.01,,Unknown,0,2012-11-09 00:54:00
8:54 PM,33.1,30.9,92,29.92,-9999.0,North,-9999.0,-,N/A,,Unknown,0,2012-11-09 01:54:00
9:54 PM,33.1,30.9,92,29.92,-9999.0,North,-9999.0,-,0.02,,Unknown,0,2012-11-09 02:54:00
10:54 PM,33.1,28.9,85,29.91,-9999.0,North,-9999.0,-,N/A,,Unknown,0,2012-11-09 03:54:00
11:54 PM,34.0,28.9,82,29.91,-9999.0,North,-9999.0,-,N/A,,Unknown,0,2012-11-09 04:54:00